Location: Islay
(41.3172°N, 105.1346°W)
Time: 19:11:45
(UTC+00:00)

ACS3 Solar Sail - Pass Details

Date: 23 April 2026
Orbit: 894 x 947 km, 97.2° (Epoch: 12 May)

Event Time Altitude Azimuth Distance (km) Brightness Sun altitude
Rises 06:37:25 0° 31° (NNE) 3,558 5.4 -35.9°
Reaches altitude 10° 06:41:03 10° 54° (NE) 2,622 4.3 -36.0°
Enters shadow 06:42:35 13° 68° (ENE) 2,384 4.0 -36.0°
